Time,TemperatureF,DewpointF,PressureIn,WindDirection,WindDirectionDegrees,WindSpeedMPH,WindSpeedGustMPH,Humidity,HourlyPrecipIn,Conditions,Clouds,dailyrainin,SoftwareType,DateUTC
2013-08-03 00:01:00,70.0,66.0,29.96,NNW,339,0.0,0.0,87,0.00,,,0.00,meteohub,2013-08-03 04:01:00,
2013-08-03 00:02:00,70.0,66.0,29.96,NNW,339,0.0,0.0,87,0.00,,,0.00,meteohub,2013-08-03 04:02:00,
2013-08-03 00:07:00,69.8,65.8,29.96,NNW,339,0.0,0.0,87,0.00,,,0.00,meteohub,2013-08-03 04:07:00,
2013-08-03 00:12:00,69.8,66.0,29.96,NNW,339,0.0,0.0,88,0.00,,,0.00,meteohub,2013-08-03 04:12:00,
2013-08-03 00:17:00,69.6,66.2,29.96,NNW,339,0.0,0.0,89,0.00,,,0.00,meteohub,2013-08-03 04:17:00,
2013-08-03 00:22:00,69.6,66.2,29.96,NNW,339,0.0,0.0,89,0.00,,,0.00,meteohub,2013-08-03 04:22:00,
2013-08-03 00:27:00,69.4,66.0,29.96,NNW,339,0.0,0.0,89,0.00,,,0.00,meteohub,2013-08-03 04:27:00,
2013-08-03 00:32:00,69.4,66.4,29.97,NNW,339,0.0,0.0,90,0.00,,,0.00,meteohub,2013-08-03 04:32:00,
2013-08-03 00:37:00,69.3,66.2,29.97,NNW,339,0.0,0.0,90,0.00,,,0.00,meteohub,2013-08-03 04:37:00,
2013-08-03 00:42:00,69.3,65.8,29.97,NNW,339,0.0,0.0,89,0.00,,,0.00,meteohub,2013-08-03 04:42:00,
2013-08-03 00:47:00,69.1,66.0,29.97,NNW,339,0.0,0.0,90,0.00,,,0.00,meteohub,2013-08-03 04:47:00,
2013-08-03 00:52:00,69.1,66.0,29.97,NNW,339,0.0,0.0,90,0.00,,,0.00,meteohub,2013-08-03 04:52:00,
2013-08-03 00:57:00,68.9,65.8,29.97,NNW,339,0.0,0.0,90,0.00,,,0.00,meteohub,2013-08-03 04:57:00,
2013-08-03 01:02:00,68.7,65.7,29.97,NNW,339,0.0,0.0,90,0.00,,,0.00,meteohub,2013-08-03 05:02:00,
2013-08-03 01:07:00,68.7,65.7,29.97,NNW,339,0.0,0.0,90,0.00,,,0.00,meteohub,2013-08-03 05:07:00,
2013-08-03 01:12:00,68.5,65.5,29.96,NNW,339,0.0,0.0,90,0.00,,,0.00,meteohub,2013-08-03 05:12:00,
2013-08-03 01:17:00,68.5,65.8,29.96,NNW,339,0.0,0.0,91,0.00,,,0.00,meteohub,2013-08-03 05:17:00,
2013-08-03 01:22:00,68.5,65.8,29.96,NNW,339,0.0,0.0,91,0.00,,,0.00,meteohub,2013-08-03 05:22:00,
2013-08-03 01:27:00,68.5,66.2,29.96,NNW,339,0.0,0.0,92,0.00,,,0.00,meteohub,2013-08-03 05:27:00,
2013-08-03 01:32:00,68.5,66.2,29.96,NNW,339,0.0,0.0,92,0.00,,,0.00,meteohub,2013-08-03 05:32:00,
2013-08-03 01:37:00,68.5,66.2,29.96,NNW,339,0.0,0.0,92,0.00,,,0.00,meteohub,2013-08-03 05:37:00,
2013-08-03 01:42:00,68.5,66.2,29.96,NNW,339,0.0,0.0,92,0.00,,,0.00,meteohub,2013-08-03 05:42:00,
2013-08-03 01:47:00,68.5,66.2,29.96,NNW,339,0.0,0.0,92,0.00,,,0.00,meteohub,2013-08-03 05:47:00,
2013-08-03 01:52:00,68.4,66.0,29.96,NNW,339,0.0,0.0,92,0.00,,,0.00,meteohub,2013-08-03 05:52:00,
2013-08-03 01:57:00,68.4,66.0,29.95,NNW,339,0.0,0.0,92,0.00,,,0.00,meteohub,2013-08-03 05:57:00,
2013-08-03 02:02:00,68.4,66.0,29.95,NNW,339,0.0,0.0,92,0.00,,,0.00,meteohub,2013-08-03 06:02:00,
2013-08-03 02:07:00,68.4,66.0,29.95,NNW,339,0.0,0.0,92,0.00,,,0.00,meteohub,2013-08-03 06:07:00,
2013-08-03 02:12:00,68.4,66.0,29.95,NNW,339,0.0,0.0,92,0.00,,,0.00,meteohub,2013-08-03 06:12:00,
2013-08-03 02:17:00,68.2,65.8,29.95,NNW,339,0.0,0.0,92,0.00,,,0.00,meteohub,2013-08-03 06:17:00,
2013-08-03 02:22:00,68.0,65.7,29.95,NNW,339,0.0,0.0,92,0.00,,,0.00,meteohub,2013-08-03 06:22:00,
2013-08-03 02:27:00,68.0,65.7,29.95,NNW,339,0.0,0.0,92,0.00,,,0.00,meteohub,2013-08-03 06:27:00,
2013-08-03 02:32:00,67.8,65.5,29.94,NNW,339,0.0,0.0,92,0.00,,,0.00,meteohub,2013-08-03 06:32:00,
2013-08-03 02:38:00,67.8,65.5,29.94,NNW,339,0.0,0.0,92,0.00,,,0.00,meteohub,2013-08-03 06:38:00,
2013-08-03 02:43:00,67.6,65.3,29.94,NNW,339,0.0,0.0,92,0.00,,,0.00,meteohub,2013-08-03 06:43:00,
2013-08-03 02:48:00,67.6,65.3,29.94,NNW,339,0.0,0.0,92,0.00,,,0.00,meteohub,2013-08-03 06:48:00,
2013-08-03 02:53:00,67.6,65.5,29.94,NNW,339,0.0,0.0,93,0.00,,,0.00,meteohub,2013-08-03 06:53:00,
2013-08-03 02:58:00,67.6,65.5,29.94,NNW,339,0.0,0.0,93,0.00,,,0.00,meteohub,2013-08-03 06:58:00,
2013-08-03 03:03:00,67.5,65.3,29.94,NNW,339,0.0,0.0,93,0.00,,,0.00,meteohub,2013-08-03 07:03:00,
2013-08-03 03:08:00,67.3,65.1,29.94,NNW,339,0.0,0.0,93,0.00,,,0.00,meteohub,2013-08-03 07:08:00,
2013-08-03 03:13:00,67.3,65.1,29.94,NNW,339,0.0,0.0,93,0.00,,,0.00,meteohub,2013-08-03 07:13:00,
2013-08-03 03:18:00,67.1,64.9,29.94,NNW,339,0.0,0.0,93,0.00,,,0.00,meteohub,2013-08-03 07:18:00,
2013-08-03 03:23:00,67.1,65.3,29.94,NNW,339,0.0,0.0,94,0.00,,,0.00,meteohub,2013-08-03 07:23:00,
2013-08-03 03:28:00,67.1,65.3,29.94,NNW,339,0.0,0.0,94,0.00,,,0.00,meteohub,2013-08-03 07:28:00,
2013-08-03 03:33:00,67.1,65.3,29.94,NNW,339,0.0,0.0,94,0.00,,,0.00,meteohub,2013-08-03 07:33:00,
2013-08-03 03:38:00,66.9,65.1,29.94,NNW,339,0.0,0.0,94,0.00,,,0.00,meteohub,2013-08-03 07:38:00,
2013-08-03 03:43:00,66.9,65.1,29.94,NNW,339,0.0,0.0,94,0.00,,,0.00,meteohub,2013-08-03 07:43:00,
2013-08-03 03:48:00,66.9,65.1,29.94,NNW,339,0.0,0.0,94,0.00,,,0.00,meteohub,2013-08-03 07:48:00,
2013-08-03 03:53:00,66.7,64.9,29.94,NNW,339,0.0,0.0,94,0.00,,,0.00,meteohub,2013-08-03 07:53:00,
2013-08-03 03:58:00,66.7,64.9,29.94,NNW,339,0.0,0.0,94,0.00,,,0.00,meteohub,2013-08-03 07:58:00,
2013-08-03 04:03:00,66.7,64.9,29.94,NNW,339,0.0,0.0,94,0.00,,,0.00,meteohub,2013-08-03 08:03:00,
2013-08-03 04:08:00,66.7,64.9,29.94,NNW,339,0.0,0.0,94,0.00,,,0.00,meteohub,2013-08-03 08:08:00,
2013-08-03 04:13:00,66.7,65.3,29.94,NNW,339,0.0,0.0,95,0.00,,,0.00,meteohub,2013-08-03 08:13:00,
2013-08-03 04:18:00,66.7,64.9,29.94,NNW,339,0.0,0.0,94,0.00,,,0.00,meteohub,2013-08-03 08:18:00,
2013-08-03 04:23:00,66.6,64.8,29.95,NNW,339,0.0,0.0,94,0.00,,,0.00,meteohub,2013-08-03 08:23:00,
2013-08-03 04:28:00,66.6,64.8,29.94,NNW,339,0.0,0.0,94,0.00,,,0.00,meteohub,2013-08-03 08:28:00,
2013-08-03 04:33:00,66.6,65.1,29.94,NNW,339,0.0,0.0,95,0.00,,,0.00,meteohub,2013-08-03 08:33:00,
2013-08-03 04:38:00,66.6,65.1,29.94,NNW,339,0.0,0.0,95,0.00,,,0.00,meteohub,2013-08-03 08:38:00,
2013-08-03 04:43:00,66.6,65.1,29.94,NNW,339,0.0,0.0,95,0.00,,,0.00,meteohub,2013-08-03 08:43:00,
2013-08-03 04:48:00,66.6,65.1,29.94,NNW,339,0.0,0.0,95,0.00,,,0.00,meteohub,2013-08-03 08:48:00,
2013-08-03 04:53:00,66.6,65.1,29.94,NNW,339,0.0,0.0,95,0.00,,,0.00,meteohub,2013-08-03 08:53:00,
2013-08-03 04:58:00,66.6,65.1,29.95,NNW,339,0.0,0.0,95,0.00,,,0.00,meteohub,2013-08-03 08:58:00,
2013-08-03 05:03:00,66.6,65.1,29.95,NNW,339,0.0,0.0,95,0.00,,,0.00,meteohub,2013-08-03 09:03:00,
2013-08-03 05:08:00,66.6,65.1,29.95,NNW,339,0.0,0.0,95,0.00,,,0.00,meteohub,2013-08-03 09:08:00,
2013-08-03 05:13:00,66.6,65.1,29.95,NNW,339,0.0,0.0,95,0.00,,,0.00,meteohub,2013-08-03 09:13:00,
2013-08-03 05:18:00,66.7,65.5,29.95,NNW,339,0.0,0.0,96,0.00,,,0.00,meteohub,2013-08-03 09:18:00,
2013-08-03 05:23:00,66.7,65.5,29.96,NNW,339,0.0,0.0,96,0.00,,,0.00,meteohub,2013-08-03 09:23:00,
2013-08-03 05:28:00,66.7,65.5,29.96,NNW,339,0.0,0.0,96,0.00,,,0.00,meteohub,2013-08-03 09:28:00,
2013-08-03 05:33:00,66.7,65.5,29.96,NNW,339,0.0,1.0,96,0.00,,,0.00,meteohub,2013-08-03 09:33:00,
2013-08-03 05:38:00,66.7,65.5,29.96,NNW,339,0.0,1.0,96,0.00,,,0.00,meteohub,2013-08-03 09:38:00,
2013-08-03 05:43:00,66.7,65.3,29.96,NNW,339,0.0,1.0,95,0.00,,,0.00,meteohub,2013-08-03 09:43:00,
2013-08-03 05:48:00,66.7,65.3,29.97,NNW,339,0.0,0.0,95,0.00,,,0.00,meteohub,2013-08-03 09:48:00,
2013-08-03 05:53:00,66.7,65.3,29.96,NNW,339,0.0,1.0,95,0.00,,,0.00,meteohub,2013-08-03 09:53:00,
2013-08-03 05:58:00,66.7,65.3,29.96,NNW,339,0.0,1.0,95,0.00,,,0.00,meteohub,2013-08-03 09:58:00,
2013-08-03 06:03:00,66.6,65.1,29.96,NNW,339,0.0,1.0,95,0.00,,,0.00,meteohub,2013-08-03 10:03:00,
2013-08-03 06:08:00,66.6,65.1,29.96,NNW,339,0.0,0.0,95,0.00,,,0.00,meteohub,2013-08-03 10:08:00,
2013-08-03 06:13:00,66.6,65.3,29.96,NNW,339,0.0,0.0,96,0.00,,,0.00,meteohub,2013-08-03 10:13:00,
2013-08-03 06:18:00,66.6,65.3,29.96,NNW,339,0.0,0.0,96,0.00,,,0.00,meteohub,2013-08-03 10:18:00,
2013-08-03 06:23:00,66.7,65.5,29.96,NNW,339,0.0,0.0,96,0.00,,,0.00,meteohub,2013-08-03 10:23:00,
2013-08-03 06:28:00,66.7,65.5,29.96,NNW,339,0.0,0.0,96,0.00,,,0.00,meteohub,2013-08-03 10:28:00,
2013-08-03 06:33:00,66.7,65.5,29.96,NNW,339,0.0,0.0,96,0.00,,,0.00,meteohub,2013-08-03 10:33:00,
2013-08-03 06:38:00,66.7,65.5,29.96,NNW,339,0.0,0.0,96,0.00,,,0.00,meteohub,2013-08-03 10:38:00,
2013-08-03 06:43:00,66.9,65.7,29.96,NNW,339,0.0,0.0,96,0.00,,,0.00,meteohub,2013-08-03 10:43:00,
2013-08-03 06:48:00,66.9,65.7,29.96,NNW,339,0.0,0.0,96,0.00,,,0.00,meteohub,2013-08-03 10:48:00,
2013-08-03 06:53:00,66.9,65.7,29.96,NNW,339,0.0,1.0,96,0.00,,,0.00,meteohub,2013-08-03 10:53:00,
2013-08-03 06:59:00,67.1,65.8,29.96,NNW,339,0.0,1.0,96,0.00,,,0.00,meteohub,2013-08-03 10:59:00,
2013-08-03 07:04:00,67.1,65.8,29.96,NNW,339,0.0,1.0,96,0.00,,,0.00,meteohub,2013-08-03 11:04:00,
2013-08-03 07:09:00,67.3,66.0,29.96,NNW,339,0.0,0.0,96,0.00,,,0.00,meteohub,2013-08-03 11:09:00,
2013-08-03 07:14:00,67.3,66.0,29.97,NNW,339,0.0,1.0,96,0.00,,,0.00,meteohub,2013-08-03 11:14:00,
2013-08-03 07:19:00,67.5,66.2,29.97,NNW,339,0.0,1.0,96,0.00,,,0.00,meteohub,2013-08-03 11:19:00,
2013-08-03 07:24:00,67.5,66.2,29.97,NNW,339,0.0,1.0,96,0.00,,,0.00,meteohub,2013-08-03 11:24:00,
2013-08-03 07:29:00,67.5,66.2,29.97,NNW,339,0.0,1.0,96,0.00,,,0.00,meteohub,2013-08-03 11:29:00,
2013-08-03 07:34:00,67.6,66.4,29.97,NNW,339,0.0,1.0,96,0.00,,,0.00,meteohub,2013-08-03 11:34:00,
2013-08-03 07:39:00,67.6,66.4,29.98,NNW,339,0.0,0.0,96,0.00,,,0.00,meteohub,2013-08-03 11:39:00,
2013-08-03 07:44:00,67.6,66.4,29.97,NNW,339,0.0,0.0,96,0.00,,,0.00,meteohub,2013-08-03 11:44:00,
2013-08-03 07:49:00,67.6,66.2,29.98,NNW,339,0.0,0.0,95,0.00,,,0.00,meteohub,2013-08-03 11:49:00,
2013-08-03 07:54:00,67.8,66.4,29.98,NNW,339,0.0,0.0,95,0.00,,,0.00,meteohub,2013-08-03 11:54:00,
2013-08-03 07:59:00,67.8,66.4,29.98,NNW,339,0.0,0.0,95,0.00,,,0.00,meteohub,2013-08-03 11:59:00,
2013-08-03 08:04:00,68.0,66.6,29.98,NNW,339,0.0,0.0,95,0.00,,,0.00,meteohub,2013-08-03 12:04:00,
2013-08-03 08:09:00,68.0,66.6,29.98,NNW,339,0.0,0.0,95,0.00,,,0.00,meteohub,2013-08-03 12:09:00,
2013-08-03 08:14:00,68.2,66.7,29.98,NNW,339,0.0,0.0,95,0.00,,,0.00,meteohub,2013-08-03 12:14:00,
2013-08-03 08:19:00,68.2,66.7,29.98,NNW,339,0.0,0.0,95,0.00,,,0.00,meteohub,2013-08-03 12:19:00,
2013-08-03 08:24:00,68.4,66.9,29.98,NNW,339,0.0,0.0,95,0.00,,,0.00,meteohub,2013-08-03 12:24:00,
2013-08-03 08:29:00,68.4,66.9,29.98,NNW,339,0.0,0.0,95,0.00,,,0.00,meteohub,2013-08-03 12:29:00,
2013-08-03 08:34:00,68.4,66.9,29.98,NNW,339,0.0,0.0,95,0.00,,,0.00,meteohub,2013-08-03 12:34:00,
2013-08-03 08:39:00,68.5,67.1,29.98,NNW,339,0.0,0.0,95,0.00,,,0.00,meteohub,2013-08-03 12:39:00,
2013-08-03 08:44:00,68.5,67.1,29.99,NNW,339,0.0,0.0,95,0.00,,,0.00,meteohub,2013-08-03 12:44:00,
2013-08-03 08:49:00,68.7,66.9,29.98,NNW,339,0.0,0.0,94,0.00,,,0.00,meteohub,2013-08-03 12:49:00,
2013-08-03 08:54:00,68.7,67.3,29.99,NNW,339,0.0,0.0,95,0.00,,,0.00,meteohub,2013-08-03 12:54:00,
2013-08-03 08:59:00,68.7,66.9,29.98,NNW,339,0.0,0.0,94,0.00,,,0.00,meteohub,2013-08-03 12:59:00,
2013-08-03 09:04:00,68.7,67.3,29.97,NNW,339,0.0,0.0,95,0.00,,,0.00,meteohub,2013-08-03 13:04:00,
2013-08-03 09:09:00,68.7,66.9,29.97,NNW,339,0.0,1.0,94,0.00,,,0.00,meteohub,2013-08-03 13:09:00,
2013-08-03 09:14:00,68.5,66.7,29.98,NNW,339,0.0,1.0,94,0.00,,,0.00,meteohub,2013-08-03 13:14:00,
2013-08-03 09:19:00,68.5,66.7,29.98,NNW,339,0.0,0.0,94,0.00,,,0.00,meteohub,2013-08-03 13:19:00,
2013-08-03 09:24:00,68.5,66.7,29.98,NNW,339,0.0,0.0,94,0.00,,,0.00,meteohub,2013-08-03 13:24:00,
2013-08-03 09:29:00,68.5,67.1,29.98,NNW,339,0.0,0.0,95,0.00,,,0.00,meteohub,2013-08-03 13:29:00,
2013-08-03 09:34:00,68.7,67.3,29.98,NNW,339,0.0,0.0,95,0.00,,,0.00,meteohub,2013-08-03 13:34:00,
2013-08-03 09:39:00,68.9,67.5,29.98,NNW,339,0.0,0.0,95,0.00,,,0.00,meteohub,2013-08-03 13:39:00,
2013-08-03 09:44:00,69.3,68.0,29.98,NNW,339,0.0,0.0,96,0.00,,,0.00,meteohub,2013-08-03 13:44:00,
2013-08-03 09:49:00,69.4,68.2,29.98,NNW,339,0.0,0.0,96,0.00,,,0.00,meteohub,2013-08-03 13:49:00,
2013-08-03 09:54:00,69.4,68.2,29.98,NNW,339,0.0,0.0,96,0.00,,,0.00,meteohub,2013-08-03 13:54:00,
2013-08-03 09:59:00,69.6,68.4,29.98,NNW,329,0.0,0.0,96,0.00,,,0.00,meteohub,2013-08-03 13:59:00,
2013-08-03 10:04:00,69.8,68.5,29.98,NNW,329,0.0,0.0,96,0.00,,,0.00,meteohub,2013-08-03 14:04:00,
2013-08-03 10:09:00,70.0,68.7,29.98,NNW,329,0.0,0.0,96,0.00,,,0.00,meteohub,2013-08-03 14:09:00,
2013-08-03 10:15:00,70.2,68.9,29.99,NNW,329,0.0,0.0,96,0.00,,,0.00,meteohub,2013-08-03 14:15:00,
2013-08-03 10:20:00,70.3,69.1,29.99,NNW,329,0.0,0.0,96,0.00,,,0.00,meteohub,2013-08-03 14:20:00,
2013-08-03 10:25:00,70.5,69.1,29.99,NNW,329,0.0,1.0,95,0.00,,,0.00,meteohub,2013-08-03 14:25:00,
2013-08-03 10:30:00,70.5,69.1,29.99,NNW,329,0.0,1.0,95,0.00,,,0.00,meteohub,2013-08-03 14:30:00,
2013-08-03 10:35:00,70.9,69.4,29.99,NNW,329,0.0,1.0,95,0.00,,,0.00,meteohub,2013-08-03 14:35:00,
2013-08-03 10:40:00,70.9,69.1,29.99,NNW,329,0.0,1.0,94,0.00,,,0.00,meteohub,2013-08-03 14:40:00,
2013-08-03 10:45:00,71.1,68.9,29.99,NNW,329,0.0,0.0,93,0.00,,,0.00,meteohub,2013-08-03 14:45:00,
2013-08-03 10:50:00,71.2,69.1,29.99,NNW,329,0.0,0.0,93,0.00,,,0.00,meteohub,2013-08-03 14:50:00,
2013-08-03 10:55:00,71.8,70.0,29.98,NNW,329,0.0,0.0,94,0.00,,,0.00,meteohub,2013-08-03 14:55:00,
2013-08-03 11:00:00,72.1,68.7,29.98,NNW,329,1.0,2.0,89,0.00,,,0.00,meteohub,2013-08-03 15:00:00,
2013-08-03 11:05:00,72.9,68.7,29.98,NNW,329,2.0,2.0,87,0.00,,,0.00,meteohub,2013-08-03 15:05:00,
2013-08-03 11:10:00,73.0,68.9,29.98,NNW,329,0.0,2.0,87,0.00,,,0.00,meteohub,2013-08-03 15:10:00,
2013-08-03 11:15:00,73.8,70.0,29.98,NNW,329,0.0,2.0,88,0.00,,,0.00,meteohub,2013-08-03 15:15:00,
2013-08-03 11:20:00,74.3,69.8,29.97,NNW,329,2.0,2.0,86,0.00,,,0.00,meteohub,2013-08-03 15:20:00,
2013-08-03 11:25:00,74.7,67.6,29.98,West,262,1.0,3.0,79,0.00,,,0.00,meteohub,2013-08-03 15:25:00,
2013-08-03 11:30:00,74.8,68.9,29.99,West,262,0.0,4.0,82,0.00,,,0.00,meteohub,2013-08-03 15:30:00,
2013-08-03 11:35:00,75.0,68.7,29.99,West,262,0.0,4.0,81,0.00,,,0.00,meteohub,2013-08-03 15:35:00,
2013-08-03 11:40:00,74.8,68.2,29.99,WSW,253,0.0,2.0,80,0.00,,,0.00,meteohub,2013-08-03 15:40:00,
2013-08-03 11:45:00,74.8,68.9,29.99,WSW,253,0.0,1.0,82,0.00,,,0.00,meteohub,2013-08-03 15:45:00,
2013-08-03 11:50:00,74.8,68.9,29.99,WSW,253,0.0,1.0,82,0.00,,,0.00,meteohub,2013-08-03 15:50:00,
2013-08-03 11:55:00,75.0,69.4,29.98,WSW,253,0.0,1.0,83,0.00,,,0.00,meteohub,2013-08-03 15:55:00,
2013-08-03 12:00:00,75.0,68.7,29.97,WSW,253,0.0,1.0,81,0.00,,,0.00,meteohub,2013-08-03 16:00:00,
2013-08-03 12:05:00,75.0,69.1,29.97,WSW,252,1.0,1.0,82,0.00,,,0.00,meteohub,2013-08-03 16:05:00,
2013-08-03 12:10:00,75.2,68.9,29.97,WSW,252,0.0,5.0,81,0.00,,,0.00,meteohub,2013-08-03 16:10:00,
2013-08-03 12:15:00,75.2,68.9,29.97,WSW,252,0.0,5.0,81,0.00,,,0.00,meteohub,2013-08-03 16:15:00,
2013-08-03 12:20:00,75.0,69.1,29.97,WSW,252,0.0,3.0,82,0.00,,,0.00,meteohub,2013-08-03 16:20:00,
2013-08-03 12:25:00,75.0,70.2,29.97,WSW,252,0.0,1.0,85,0.00,,,0.00,meteohub,2013-08-03 16:25:00,
2013-08-03 12:30:00,75.0,70.2,29.97,WSW,252,0.0,0.0,85,0.00,,,0.00,meteohub,2013-08-03 16:30:00,
2013-08-03 12:32:00,74.8,70.0,29.97,WSW,252,0.0,0.0,85,0.00,,,0.00,meteohub,2013-08-03 16:32:00,
2013-08-03 12:37:00,74.7,70.5,29.97,WSW,252,0.0,0.0,87,0.00,,,0.00,meteohub,2013-08-03 16:37:00,
2013-08-03 12:42:00,74.5,70.3,29.97,WSW,252,0.0,0.0,87,0.00,,,0.00,meteohub,2013-08-03 16:42:00,
2013-08-03 12:47:00,74.3,70.2,29.97,WSW,252,0.0,0.0,87,0.00,,,0.00,meteohub,2013-08-03 16:47:00,
2013-08-03 12:52:00,73.9,69.4,29.97,WSW,252,0.0,0.0,86,0.00,,,0.00,meteohub,2013-08-03 16:52:00,
2013-08-03 12:57:00,73.8,69.3,29.97,WSW,252,0.0,0.0,86,0.00,,,0.00,meteohub,2013-08-03 16:57:00,
2013-08-03 13:02:00,73.6,69.1,29.97,WSW,252,0.0,0.0,86,0.00,,,0.00,meteohub,2013-08-03 17:02:00,
2013-08-03 13:07:00,73.6,69.1,29.97,WSW,252,0.0,0.0,86,0.00,,,0.00,meteohub,2013-08-03 17:07:00,
2013-08-03 13:12:00,73.8,70.3,29.97,WSW,252,0.0,1.0,89,0.01,,,0.01,meteohub,2013-08-03 17:12:00,
2013-08-03 13:17:00,73.9,69.4,29.97,NNW,340,2.0,2.0,86,0.01,,,0.01,meteohub,2013-08-03 17:17:00,
2013-08-03 13:22:00,74.5,68.9,29.97,NNW,332,1.0,3.0,83,0.01,,,0.01,meteohub,2013-08-03 17:22:00,
2013-08-03 13:27:00,74.8,68.2,29.97,NW,316,1.0,5.0,80,0.01,,,0.01,meteohub,2013-08-03 17:27:00,
2013-08-03 13:32:00,75.2,67.8,29.97,North,0,2.0,5.0,78,0.01,,,0.01,meteohub,2013-08-03 17:32:00,
2013-08-03 13:37:00,75.6,67.8,29.97,NW,312,1.0,5.0,77,0.01,,,0.01,meteohub,2013-08-03 17:37:00,
2013-08-03 13:42:00,75.4,66.6,29.97,NE,37,0.0,4.0,74,0.01,,,0.01,meteohub,2013-08-03 17:42:00,
2013-08-03 13:47:00,75.4,67.6,29.97,ESE,119,1.0,4.0,77,0.01,,,0.01,meteohub,2013-08-03 17:47:00,
2013-08-03 13:52:00,74.8,66.7,29.97,NNW,329,1.0,4.0,76,0.01,,,0.01,meteohub,2013-08-03 17:52:00,
2013-08-03 13:57:00,74.8,67.1,29.97,NNW,328,1.0,4.0,77,0.01,,,0.01,meteohub,2013-08-03 17:57:00,
2013-08-03 14:02:00,74.3,65.5,29.97,NNW,327,1.0,4.0,74,0.01,,,0.01,meteohub,2013-08-03 18:02:00,
2013-08-03 14:07:00,73.9,65.8,29.97,NNW,327,0.0,4.0,76,0.01,,,0.01,meteohub,2013-08-03 18:07:00,
2013-08-03 14:12:00,73.6,65.5,29.97,North,349,2.0,4.0,76,0.00,,,0.01,meteohub,2013-08-03 18:12:00,
2013-08-03 14:17:00,73.2,64.4,29.97,NNW,342,0.0,4.0,74,0.00,,,0.01,meteohub,2013-08-03 18:17:00,
2013-08-03 14:23:00,73.0,66.2,29.96,WNW,282,0.0,4.0,79,0.00,,,0.01,meteohub,2013-08-03 18:23:00,
2013-08-03 14:28:00,72.9,65.3,29.96,West,272,0.0,4.0,77,0.00,,,0.01,meteohub,2013-08-03 18:28:00,
2013-08-03 14:33:00,72.7,64.8,29.96,NNW,333,1.0,3.0,76,0.00,,,0.01,meteohub,2013-08-03 18:33:00,
2013-08-03 14:38:00,72.7,65.5,29.96,NW,304,0.0,2.0,78,0.00,,,0.01,meteohub,2013-08-03 18:38:00,
2013-08-03 14:43:00,72.7,64.8,29.96,WNW,289,1.0,3.0,76,0.00,,,0.01,meteohub,2013-08-03 18:43:00,
2013-08-03 14:47:00,72.9,65.7,29.96,WSW,252,0.0,3.0,78,0.00,,,0.01,meteohub,2013-08-03 18:47:00,
2013-08-03 14:52:00,73.0,65.5,29.95,WNW,298,1.0,3.0,77,0.00,,,0.01,meteohub,2013-08-03 18:52:00,
2013-08-03 14:58:00,73.0,66.2,29.95,WNW,298,0.0,3.0,79,0.00,,,0.01,meteohub,2013-08-03 18:58:00,
2013-08-03 15:03:00,73.2,65.1,29.95,WNW,298,0.0,3.0,76,0.00,,,0.01,meteohub,2013-08-03 19:03:00,
2013-08-03 15:08:00,73.6,65.8,29.94,WNW,294,0.0,2.0,77,0.00,,,0.01,meteohub,2013-08-03 19:08:00,
2013-08-03 15:13:00,73.8,67.3,29.94,West,278,0.0,1.0,80,0.00,,,0.01,meteohub,2013-08-03 19:13:00,
2013-08-03 15:18:00,73.9,67.1,29.94,West,278,0.0,2.0,79,0.00,,,0.01,meteohub,2013-08-03 19:18:00,
2013-08-03 15:23:00,74.1,66.0,29.94,West,278,0.0,2.0,76,0.00,,,0.01,meteohub,2013-08-03 19:23:00,
2013-08-03 15:28:00,74.3,66.9,29.94,West,278,0.0,2.0,78,0.00,,,0.01,meteohub,2013-08-03 19:28:00,
2013-08-03 15:33:00,74.5,67.1,29.94,West,278,0.0,2.0,78,0.00,,,0.01,meteohub,2013-08-03 19:33:00,
2013-08-03 15:38:00,74.7,68.4,29.94,West,278,0.0,2.0,81,0.00,,,0.01,meteohub,2013-08-03 19:38:00,
2013-08-03 15:43:00,74.7,67.6,29.94,West,278,0.0,2.0,79,0.00,,,0.01,meteohub,2013-08-03 19:43:00,
2013-08-03 15:48:00,74.7,68.4,29.94,West,278,0.0,1.0,81,0.00,,,0.01,meteohub,2013-08-03 19:48:00,
2013-08-03 15:53:00,74.7,68.4,29.95,West,278,0.0,1.0,81,0.00,,,0.01,meteohub,2013-08-03 19:53:00,
2013-08-03 15:58:00,74.5,68.2,29.95,West,278,0.0,0.0,81,0.00,,,0.01,meteohub,2013-08-03 19:58:00,
2013-08-03 16:03:00,74.5,68.2,29.94,West,278,0.0,0.0,81,0.00,,,0.01,meteohub,2013-08-03 20:03:00,
2013-08-03 16:08:00,74.5,68.2,29.94,West,278,0.0,0.0,81,0.00,,,0.01,meteohub,2013-08-03 20:08:00,
2013-08-03 16:13:00,74.3,67.6,29.94,WSW,246,0.0,0.0,80,0.00,,,0.01,meteohub,2013-08-03 20:13:00,
2013-08-03 16:18:00,74.1,68.0,29.95,North,355,4.0,4.0,81,0.00,,,0.01,meteohub,2013-08-03 20:18:00,
2013-08-03 16:23:00,73.9,65.8,29.94,NNW,345,1.0,3.0,76,0.00,,,0.01,meteohub,2013-08-03 20:23:00,
2013-08-03 16:28:00,73.6,65.5,29.95,NNW,345,0.0,4.0,76,0.00,,,0.01,meteohub,2013-08-03 20:28:00,
2013-08-03 16:33:00,73.2,64.8,29.95,NNW,345,0.0,4.0,75,0.00,,,0.01,meteohub,2013-08-03 20:33:00,
2013-08-03 16:38:00,73.0,66.2,29.95,West,260,3.0,4.0,79,0.00,,,0.01,meteohub,2013-08-03 20:38:00,
2013-08-03 16:43:00,72.9,66.4,29.95,NW,309,1.0,3.0,80,0.00,,,0.01,meteohub,2013-08-03 20:43:00,
2013-08-03 16:48:00,72.7,65.8,29.95,SW,223,4.0,4.0,79,0.00,,,0.01,meteohub,2013-08-03 20:48:00,
2013-08-03 16:53:00,72.3,66.2,29.95,NW,319,1.0,3.0,81,0.00,,,0.01,meteohub,2013-08-03 20:53:00,
2013-08-03 16:58:00,72.1,66.4,29.95,WNW,296,0.0,4.0,82,0.00,,,0.01,meteohub,2013-08-03 20:58:00,
2013-08-03 17:03:00,72.0,66.2,29.95,WNW,286,0.0,4.0,82,0.00,,,0.01,meteohub,2013-08-03 21:03:00,
2013-08-03 17:08:00,71.8,66.0,29.95,WSW,253,0.0,4.0,82,0.00,,,0.01,meteohub,2013-08-03 21:08:00,
2013-08-03 17:14:00,71.6,66.6,29.95,West,273,0.0,7.0,84,0.00,,,0.01,meteohub,2013-08-03 21:14:00,
2013-08-03 17:19:00,71.6,66.6,29.95,West,262,1.0,7.0,84,0.00,,,0.01,meteohub,2013-08-03 21:19:00,
2013-08-03 17:24:00,71.4,66.0,29.95,West,279,0.0,3.0,83,0.00,,,0.01,meteohub,2013-08-03 21:24:00,
2013-08-03 17:29:00,71.4,66.4,29.96,West,280,0.0,3.0,84,0.00,,,0.01,meteohub,2013-08-03 21:29:00,
2013-08-03 17:34:00,71.2,66.6,29.96,West,275,0.0,3.0,85,0.00,,,0.01,meteohub,2013-08-03 21:34:00,
2013-08-03 17:38:00,71.1,66.0,29.96,West,279,0.0,2.0,84,0.00,,,0.01,meteohub,2013-08-03 21:38:00,
2013-08-03 17:43:00,71.1,66.4,29.95,West,279,0.0,3.0,85,0.00,,,0.01,meteohub,2013-08-03 21:43:00,
2013-08-03 17:49:00,70.9,66.6,29.95,West,279,0.0,3.0,86,0.00,,,0.01,meteohub,2013-08-03 21:49:00,
2013-08-03 17:54:00,70.9,66.6,29.95,WNW,294,0.0,3.0,86,0.00,,,0.01,meteohub,2013-08-03 21:54:00,
2013-08-03 17:58:00,70.7,66.4,29.95,WNW,294,0.0,2.0,86,0.00,,,0.01,meteohub,2013-08-03 21:58:00,
2013-08-03 18:04:00,70.7,66.4,29.95,WNW,294,0.0,2.0,86,0.00,,,0.01,meteohub,2013-08-03 22:04:00,
2013-08-03 18:09:00,70.7,66.6,29.95,WNW,294,0.0,2.0,87,0.00,,,0.01,meteohub,2013-08-03 22:09:00,
2013-08-03 18:14:00,70.5,66.4,29.95,WNW,294,0.0,1.0,87,0.00,,,0.01,meteohub,2013-08-03 22:14:00,
2013-08-03 18:19:00,70.5,66.4,29.96,WNW,294,1.0,1.0,87,0.00,,,0.01,meteohub,2013-08-03 22:19:00,
2013-08-03 18:24:00,70.5,66.4,29.96,WSW,257,0.0,2.0,87,0.00,,,0.01,meteohub,2013-08-03 22:24:00,
2013-08-03 18:29:00,70.5,66.4,29.96,WSW,257,0.0,3.0,87,0.00,,,0.01,meteohub,2013-08-03 22:29:00,
2013-08-03 18:34:00,70.5,66.4,29.95,WSW,257,0.0,3.0,87,0.00,,,0.01,meteohub,2013-08-03 22:34:00,
2013-08-03 18:39:00,70.5,66.7,29.95,WSW,257,0.0,1.0,88,0.00,,,0.01,meteohub,2013-08-03 22:39:00,
2013-08-03 18:44:00,70.5,66.7,29.95,WSW,257,0.0,0.0,88,0.00,,,0.01,meteohub,2013-08-03 22:44:00,
2013-08-03 18:49:00,70.3,66.2,29.94,WSW,257,0.0,0.0,87,0.00,,,0.01,meteohub,2013-08-03 22:49:00,
2013-08-03 18:54:00,70.3,66.6,29.94,WSW,257,0.0,1.0,88,0.00,,,0.01,meteohub,2013-08-03 22:54:00,
2013-08-03 18:59:00,70.3,66.6,29.94,WSW,257,0.0,1.0,88,0.00,,,0.01,meteohub,2013-08-03 22:59:00,
2013-08-03 19:04:00,70.3,66.6,29.94,WSW,257,0.0,1.0,88,0.00,,,0.01,meteohub,2013-08-03 23:04:00,
2013-08-03 19:09:00,70.3,66.6,29.94,WSW,257,0.0,1.0,88,0.00,,,0.01,meteohub,2013-08-03 23:09:00,
2013-08-03 19:14:00,70.3,66.6,29.94,WSW,257,0.0,0.0,88,0.00,,,0.01,meteohub,2013-08-03 23:14:00,
2013-08-03 19:19:00,70.3,66.9,29.93,WSW,257,0.0,0.0,89,0.00,,,0.01,meteohub,2013-08-03 23:19:00,
2013-08-03 19:24:00,70.3,66.6,29.93,WSW,257,0.0,0.0,88,0.00,,,0.01,meteohub,2013-08-03 23:24:00,
2013-08-03 19:29:00,70.3,66.9,29.93,WSW,257,0.0,0.0,89,0.00,,,0.01,meteohub,2013-08-03 23:29:00,
2013-08-03 19:34:00,70.3,66.9,29.94,WSW,257,0.0,0.0,89,0.00,,,0.01,meteohub,2013-08-03 23:34:00,
2013-08-03 19:39:00,70.3,66.9,29.94,WSW,257,0.0,0.0,89,0.00,,,0.01,meteohub,2013-08-03 23:39:00,
2013-08-03 19:44:00,70.2,66.7,29.94,WSW,257,0.0,0.0,89,0.00,,,0.01,meteohub,2013-08-03 23:44:00,
2013-08-03 19:49:00,70.2,67.1,29.95,WSW,257,0.0,0.0,90,0.00,,,0.01,meteohub,2013-08-03 23:49:00,
2013-08-03 19:54:00,70.2,67.5,29.94,WSW,257,0.0,1.0,91,0.00,,,0.01,meteohub,2013-08-03 23:54:00,
2013-08-03 19:59:00,70.0,67.3,29.94,WSW,257,0.0,1.0,91,0.00,,,0.01,meteohub,2013-08-03 23:59:00,
2013-08-03 20:04:00,69.6,66.9,29.94,West,268,0.0,1.0,91,0.00,,,0.01,meteohub,2013-08-04 00:04:00,
2013-08-03 20:09:00,69.4,67.1,29.94,West,268,0.0,2.0,92,0.00,,,0.01,meteohub,2013-08-04 00:09:00,
2013-08-03 20:14:00,69.3,66.9,29.94,West,268,0.0,2.0,92,0.00,,,0.01,meteohub,2013-08-04 00:14:00,
2013-08-03 20:19:00,69.1,66.9,29.96,WNW,294,0.0,2.0,93,0.00,,,0.01,meteohub,2013-08-04 00:19:00,
2013-08-03 20:24:00,68.7,66.6,29.95,WNW,294,1.0,2.0,93,0.00,,,0.01,meteohub,2013-08-04 00:24:00,
2013-08-03 20:29:00,68.5,66.4,29.95,WNW,298,1.0,2.0,93,0.00,,,0.01,meteohub,2013-08-04 00:29:00,
2013-08-03 20:34:00,68.5,66.4,29.96,WNW,288,0.0,2.0,93,0.00,,,0.01,meteohub,2013-08-04 00:34:00,
2013-08-03 20:39:00,68.4,66.2,29.96,North,355,0.0,3.0,93,0.00,,,0.01,meteohub,2013-08-04 00:39:00,
2013-08-03 20:44:00,68.2,66.0,29.96,WSW,257,0.0,3.0,93,0.00,,,0.01,meteohub,2013-08-04 00:44:00,
2013-08-03 20:49:00,68.0,65.8,29.96,West,259,0.0,4.0,93,0.00,,,0.01,meteohub,2013-08-04 00:49:00,
2013-08-03 20:54:00,67.8,65.7,29.96,NNW,343,0.0,4.0,93,0.00,,,0.01,meteohub,2013-08-04 00:54:00,
2013-08-03 20:59:00,67.5,65.7,29.96,WNW,293,1.0,4.0,94,0.01,,,0.02,meteohub,2013-08-04 00:59:00,
2013-08-03 21:04:00,67.5,65.7,29.96,WNW,293,0.0,4.0,94,0.02,,,0.03,meteohub,2013-08-04 01:04:00,
2013-08-03 21:09:00,67.3,65.5,29.96,WNW,282,0.0,4.0,94,0.03,,,0.04,meteohub,2013-08-04 01:09:00,
2013-08-03 21:14:00,67.3,65.8,29.96,WNW,282,0.0,2.0,95,0.03,,,0.04,meteohub,2013-08-04 01:14:00,
2013-08-03 21:19:00,67.3,65.8,29.96,WNW,282,0.0,2.0,95,0.03,,,0.04,meteohub,2013-08-04 01:19:00,
2013-08-03 21:25:00,67.3,65.8,29.96,WNW,282,0.0,2.0,95,0.03,,,0.04,meteohub,2013-08-04 01:25:00,
2013-08-03 21:30:00,67.1,65.7,29.96,WNW,282,0.0,1.0,95,0.03,,,0.04,meteohub,2013-08-04 01:30:00,
2013-08-03 21:35:00,67.1,65.7,29.96,WNW,282,0.0,0.0,95,0.04,,,0.05,meteohub,2013-08-04 01:35:00,
2013-08-03 21:40:00,67.3,66.0,29.96,WNW,282,0.0,1.0,96,0.04,,,0.05,meteohub,2013-08-04 01:40:00,
2013-08-03 21:45:00,67.1,65.8,29.96,WNW,282,0.0,1.0,96,0.04,,,0.05,meteohub,2013-08-04 01:45:00,
2013-08-03 21:50:00,67.1,65.8,29.95,WNW,282,0.0,0.0,96,0.03,,,0.05,meteohub,2013-08-04 01:50:00,
2013-08-03 21:55:00,67.1,65.8,29.95,WNW,282,0.0,1.0,96,0.03,,,0.05,meteohub,2013-08-04 01:55:00,
2013-08-03 22:00:00,67.1,65.8,29.95,WNW,282,0.0,1.0,96,0.02,,,0.05,meteohub,2013-08-04 02:00:00,
2013-08-03 22:05:00,66.9,65.7,29.95,WNW,282,0.0,0.0,96,0.01,,,0.05,meteohub,2013-08-04 02:05:00,
2013-08-03 22:10:00,66.9,65.7,29.96,WNW,282,0.0,0.0,96,0.01,,,0.05,meteohub,2013-08-04 02:10:00,
2013-08-03 22:15:00,66.9,65.7,29.96,WNW,282,0.0,0.0,96,0.01,,,0.05,meteohub,2013-08-04 02:15:00,
2013-08-03 22:20:00,67.1,65.8,29.96,WNW,282,0.0,0.0,96,0.01,,,0.05,meteohub,2013-08-04 02:20:00,
2013-08-03 22:25:00,67.1,65.8,29.96,WNW,282,0.0,0.0,96,0.00,,,0.05,meteohub,2013-08-04 02:25:00,
2013-08-03 22:30:00,67.1,65.8,29.96,WNW,282,0.0,0.0,96,0.00,,,0.05,meteohub,2013-08-04 02:30:00,
2013-08-03 22:35:00,67.1,65.8,29.95,WNW,282,0.0,0.0,96,0.00,,,0.05,meteohub,2013-08-04 02:35:00,
2013-08-03 22:40:00,67.1,65.8,29.95,WNW,282,0.0,0.0,96,0.00,,,0.05,meteohub,2013-08-04 02:40:00,
2013-08-03 22:45:00,67.3,66.0,29.95,WNW,282,0.0,0.0,96,0.00,,,0.05,meteohub,2013-08-04 02:45:00,
2013-08-03 22:50:00,67.3,66.4,29.96,WNW,282,0.0,0.0,97,0.00,,,0.05,meteohub,2013-08-04 02:50:00,
2013-08-03 22:55:00,67.1,66.2,29.96,WNW,282,0.0,0.0,97,0.00,,,0.05,meteohub,2013-08-04 02:55:00,
2013-08-03 23:00:00,67.3,66.4,29.95,WNW,282,0.0,0.0,97,0.00,,,0.05,meteohub,2013-08-04 03:00:00,
2013-08-03 23:05:00,67.3,66.4,29.96,WNW,282,0.0,0.0,97,0.00,,,0.05,meteohub,2013-08-04 03:05:00,
2013-08-03 23:10:00,67.1,66.2,29.96,WNW,282,0.0,0.0,97,0.00,,,0.05,meteohub,2013-08-04 03:10:00,
2013-08-03 23:15:00,67.1,66.2,29.96,WNW,282,0.0,1.0,97,0.00,,,0.05,meteohub,2013-08-04 03:15:00,
2013-08-03 23:20:00,67.1,66.2,29.96,WNW,282,0.0,1.0,97,0.00,,,0.05,meteohub,2013-08-04 03:20:00,
2013-08-03 23:25:00,67.1,66.2,29.96,WNW,282,0.0,0.0,97,0.00,,,0.05,meteohub,2013-08-04 03:25:00,
2013-08-03 23:30:00,66.9,66.0,29.96,WNW,282,0.0,0.0,97,0.00,,,0.05,meteohub,2013-08-04 03:30:00,
2013-08-03 23:35:00,66.9,65.7,29.96,WNW,282,0.0,0.0,96,0.00,,,0.05,meteohub,2013-08-04 03:35:00,
2013-08-03 23:40:00,66.7,65.5,29.95,WNW,282,0.0,0.0,96,0.00,,,0.05,meteohub,2013-08-04 03:40:00,
2013-08-03 23:45:00,66.7,65.5,29.95,WNW,282,0.0,0.0,96,0.00,,,0.05,meteohub,2013-08-04 03:45:00,
2013-08-03 23:50:00,66.6,65.3,29.95,WNW,282,0.0,0.0,96,0.00,,,0.05,meteohub,2013-08-04 03:50:00,
2013-08-03 23:55:00,66.6,65.3,29.95,WNW,282,0.0,0.0,96,0.00,,,0.05,meteohub,2013-08-04 03:55:00,